Hourly Data Report for September 30, 2017

All times are specified in Local Standard Time (LST). Add 1 hour to adjust for Daylight Saving Time where and when it is observed.

BATHURST A
NEW BRUNSWICK

47°37'47.000" N
65°44'20.000" W
58.80 m
8100505
71574
ZBF

Download Data

Hourly Data (September 2017)
Hourly Data Report for September 30, 2017
Temp Definition
°C
Dew Point Temp Definition
°C
Rel Hum Definition
%
Wind Dir Definition
10's deg

Wind Spd Definition
km/h
Visibility Definition
km
Stn Press Definition
kPa
Hmdx Definition


Wind Chill Definition


Weather Definition


TIME
00:00 Legend Double Dagger 3.8 1.3 84 31 10 24.1 101.25     LegendNANA
01:00 Legend Double Dagger 3.4 1.3 86 30 8 24.1 101.29     LegendNANA
02:00 Legend Double Dagger 3.2 1.2 87 29 7 24.1 101.34     Clear
03:00 Legend Double Dagger 2.8 0.8 87 30 5 24.1 101.37     LegendNANA
04:00 Legend Double Dagger 2.9 0.7 85 31 5 24.1 101.44     LegendNANA
05:00 Legend Double Dagger 2.5 0.2 85 30 4 24.1 101.48     Mainly Clear
06:00 Legend Double Dagger 1.8 0.1 88 30 7 24.1 101.56     LegendNANA
07:00 Legend Double Dagger 2.0 0.6 90 28 7 24.1 101.64     LegendNANA
08:00 Legend Double Dagger 4.7 1.6 80 31 8 24.1 101.71     Mainly Clear
09:00 Legend Double Dagger 7.1 0.6 63 34 12 24.1 101.74     LegendNANA
10:00 Legend Double Dagger 7.4 -1.1 55 28 10 24.1 101.78     LegendNANA
11:00 Legend Double Dagger 7.6 -0.8 56 34 7 24.1 101.78     Mostly Cloudy
12:00 Legend Double Dagger 8.6 -0.8 51 34 4 24.1 101.78     LegendNANA
13:00 Legend Double Dagger 9.2 -0.2 52 25 9 24.1 101.76     LegendNANA
14:00 Legend Double Dagger 9.4 -0.4 50 0 1 24.1 101.70     Mainly Clear
15:00 Legend Double Dagger 10.5 0.5 50 8 8 24.1 101.67     LegendNANA
16:00 Legend Double Dagger 9.9 0.9 53 10 10 24.1 101.64     LegendNANA
17:00 Legend Double Dagger 9.6 0.8 54 11 7 24.1 101.61     Clear
18:00 Legend Double Dagger 7.2 2.8 74 36 3 24.1 101.61     LegendNANA
19:00 Legend Double Dagger 3.5 1.8 88 25 5 24.1 101.63     LegendNANA
20:00 Legend Double Dagger 2.6 1.0 89 22 5 24.1 101.64     Clear
21:00 Legend Double Dagger 3.0 1.1 87 25 11 24.1 101.62     LegendNANA
22:00 Legend Double Dagger 2.1 0.2 87 23 9 24.1 101.59     LegendNANA
23:00 Legend Double Dagger 1.5 0.0 90 22 9 24.1 101.58     Clear

Notes on Data Quality.

Legend

  • E = Estimated
  • M = Missing
  • NA = Not Available
  • ‡ = Partner data that is not subject to review by the National Climate Archives
Date modified: